This is the latest recevied weather packets stored in our database for station/object WY7EM. If no packets are shown the sender has not sent any weather packets the latest 10 day(s).
| Time | Temp. | Humidity | Pressure | Rain* | Wind** | Luminosity | Snow |
|---|---|---|---|---|---|---|---|
| 1777570886 | 20.56° C | 20% | 1015.2 hPa | 0 mm | - | 749 W/m² | - |
| 1777570582 | 20° C | 21% | 1015.2 hPa | 0 mm | - | 738 W/m² | - |
| 1777570279 | 19.44° C | 22% | 1015.1 hPa | 0 mm | - | 726 W/m² | - |
| 1777569974 | 19.44° C | 21% | 1015.3 hPa | 0 mm | - | 715 W/m² | - |
| 1777569670 | 19.44° C | 21% | 1015.2 hPa | 0 mm | - | 702 W/m² | - |
| 1777569366 | 19.44° C | 22% | 1015.3 hPa | 0 mm | - | 689 W/m² | - |
| 1777569063 | 19.44° C | 21% | 1015.4 hPa | 0 mm | - | 677 W/m² | - |
| 1777568760 | 19.44° C | 21% | 1015.3 hPa | 0 mm | - | 664 W/m² | - |
| 1777568457 | 19.44° C | 21% | 1015.4 hPa | 0 mm | - | 651 W/m² | - |
| 1777568154 | 19.44° C | 21% | 1015.4 hPa | 0 mm | - | 637 W/m² | - |
| 1777567851 | 19.44° C | 21% | 1015.2 hPa | 0 mm | - | 624 W/m² | - |
| 1777567546 | 18.89° C | 22% | 1015.3 hPa | 0 mm | - | 610 W/m² | - |
| 1777567244 | 18.89° C | 22% | 1015.4 hPa | 0 mm | - | 599 W/m² | - |
| 1777566943 | 18.33° C | 23% | 1015.4 hPa | 0 mm | - | 573 W/m² | - |
| 1777566640 | 18.33° C | 22% | 1015.3 hPa | 0 mm | - | 571 W/m² | - |
| 1777566337 | 18.33° C | 22% | 1015.4 hPa | 0 mm | - | 556 W/m² | - |
| 1777566035 | 17.78° C | 23% | 1015.5 hPa | 0 mm | - | 540 W/m² | - |
| 1777565730 | 17.22° C | 23% | 1015.4 hPa | 0 mm | - | 525 W/m² | - |
| 1777565427 | 17.78° C | 24% | 1015.5 hPa | 0 mm | - | 511 W/m² | - |
| 1777565123 | 17.78° C | 23% | 1015.4 hPa | 0 mm | - | 495 W/m² | - |
| 1777564819 | 17.22° C | 24% | 1015.3 hPa | 0 mm | - | 479 W/m² | - |
| 1777564514 | 17.22° C | 24% | 1015.6 hPa | 0 mm | - | 462 W/m² | - |
| 1777564210 | 16.67° C | 24% | 1015.3 hPa | 0 mm | - | 447 W/m² | - |
| 1777563906 | 17.22° C | 24% | 1015.5 hPa | 0 mm | - | 430 W/m² | - |
| 1777563603 | 16.67° C | 24% | 1015.5 hPa | 0 mm | - | 413 W/m² | - |
* Rain latest hour (hover to see other rain measurements)
** Current wind speed in m/s (hover to see current wind gust speed)